カタログに戻る

STARLINK-38179

運用中通信SSO
NORAD 100150·PAYLOAD·🇺🇸 United States

打ち上げ Jul 25, 2026 から Vandenberg Space Force Base

Loading…

次のパス (今後24時間)

TLE

最新Source: Space-Track

元期: Sep 14, 2026, 21:34 UTC

1 A0150U 26171C   26257.89892933 -.00108873  00000-0 -34113-2 0  9999
2 A0150  97.2834 290.5150 0000897  74.0245 286.1096 15.33514284  8049

AllMySatでSTARLINK-38179をリアルタイム追跡

Download on the App Store